User: anonymous   Login
Location: Banksville Park
(38.5557°N, 75.1182°W)
Time: 01:02:02
(UTC+00:00)
Language:

Cosmos 2082 Rocket - Orbit

View from above orbital plane
View from above orbital plane
View from above satellite
View from above satellite

Ground track
Ground track

The orbit data is extracted from the following two-line orbital elements,

1 20625U 90046B   20328.53110750 -.00000104 +00000-0 -29174-4 0  9995
2 20625 071.0000 034.3008 0014427 351.0275 009.0587 14.14656523575119
Epoch (UTC): 23 November 2020 12:44:47
Eccentricity: 0.0014427
inclination: 71.0000°
perigee height: 833 km
apogee height: 854 km
right ascension of ascending node: 34.3008°
argument of perigee: 351.0275°
revolutions per day: 14.14656523
mean anomaly at epoch: 9.0587°
orbit number at epoch: 57511

The dashed part of the orbit path shows where the satellite is in the earth's shadow,  

DLR